Terminal Aerodrome Forecast
Issued by NWS Pocatello, ID

Home | Current Version | Previous Version | Text Only | Print | Product List | Glossary On
Versions: 1 2 3 4 5 6 7 8 9 10 11 12 13 14 15 16
000
FTUS45 KPIH 290520
TAFBYI
TAF
KBYI 290520Z 2906/3006 VRB06KT P6SM VCTS BKN080CB BKN200
     FM291000 07006KT P6SM SCT100 BKN250
     FM291800 08005KT P6SM SCT250=

USA.gov is the U.S. government's official web portal to all federal, state and local government web resources and services.